Location: Le Rocchette
(44.3500°N, 7.8333°E)
Time: 03:25:25
(UTC+00:00)

In-Cosmos 22 Rocket - Pass Details

Date: 17 November 2019
Orbit: 791 x 887 km, 81.2° (Epoch: 10 December)

Event Time Altitude Azimuth Distance (km) Brightness Sun altitude
Rises 04:14:43 0° 185° (S) 3,286 7.3 -23.5°
Reaches altitude 10° 04:17:03 10° 185° (S) 2,369 6.5 -23.0°
Maximum altitude 04:22:24 81° 99° (E) 827 4.1 -22.1°
Drops below altitude 10° 04:27:55 10° 12° (NNE) 2,440 6.7 -21.1°
Sets 04:30:21 0° 12° (NNE) 3,393 7.4 -20.7°
